User: anonymous
Location: Desert Center
(33.7130°N, 115.4010°W)
Time: 01:00:48
(UTC-07:00)
Language:

USA 215 - Orbit

View from above orbital plane
View from above orbital plane
View from above satellite
View from above satellite

Ground track
Ground track

The orbit data is extracted from the following two-line orbital elements,

1 37162U 10046A   14291.81879319 0.00000000  00000-0  00000-0 0    06
2 37162 122.9945  37.7302 0005247  20.6062 339.3937 13.41451080    03
Epoch (UTC): 18 October 2014 19:39:03
Eccentricity: 0.0005247
inclination: 122.9945°
perigee height: 1100 km
apogee height: 1108 km
right ascension of ascending node: 37.7302°
argument of perigee: 20.6062°
revolutions per day: 13.41451080
mean anomaly at epoch: 339.3937°
orbit number at epoch: 0

The dashed part of the orbit path shows where the satellite is in the earth's shadow,  

DLR